Location: Austin
(30.3000°N, 97.7500°W)
Time: 03:59:31
(UTC-05:00)

NOSS 3-4 (C) - Pass Details

Date: 01 October 2024
Orbit: 802 x 1409 km, 63.4° (Epoch: 19 September)

Event Time Altitude Azimuth Distance (km) Brightness Sun altitude
Rises 19:35:41 0° 330° (NNW) 3,915 7.1 -5.2°
Reaches altitude 10° 19:38:12 10° 331° (NNW) 3,037 6.5 -5.7°
Maximum altitude 19:45:38 89° 244° (WSW) 1,268 4.1 -7.3°
Drops below altitude 10° 19:54:02 10° 154° (SSE) 3,415 6.1 -9.1°
Sets 19:57:02 0° 154° (SSE) 4,426 6.6 -9.8°
